STARLINK-2513, 48317

Orbit data source: Space-Track

STARLINK-2513, 48317 is a payload satellite owned by SpaceX/Seattle (US) in LEO that was launched on Thu, 29 Apr 2021 UTC via an FALCON 9 launch vehicle from the Air Force Eastern Test Range (AFETR). Payload-class satellites include a variety of spacecraft equipped with specific instruments for various scientific and technological missions. These include communications satellites like Starlink; space stations such as the ISS; scientific satellites like the Hubble; Earth observation satellites from companies like Planet Labs, Umbra, and HawkEye 360; GPS; miniature CubeSats for education and research; and military/defense satellites.

Loading next visibility...
Identifier
48317, 2021-036AT
Orbit
LEO
Country
Flag of USUS
Related business
Manufacturer
SpaceX/Seattle
Mission
Operational Commercial Communications
Bus & Motor
STARLINK, Unknown motor
Mass
260 kg wet, ~248 kg dry
Launch date (UTC)
2021-04-29 (4 years ago)
Launch vehicle
FALCON 9
Launch site
Air Force Eastern Test Range (AFETR)
Object type
Payload
Rocket body
Debris
Shape & HBR
Box + 1 Pan, 10.1 m
Radar Cross Section
13.562 m², Large (>1 m²)

Expand to show TLE details & history
Last TLE update: 8 hours ago

TLE from 8 hours ago
0 STARLINK-2513
1 48317U 21036AT  25291.22081834  .00000872  00000-0  77424-4 0  9997
2 48317  53.0554  11.1873 0001981  79.2863 280.8349 15.06396027246692
Epoch: 2025-10-18T05:17Z
TLE epoch observation values (Epoch: 2025-10-18T05:17:58.704Z)
Latitude
-0.00002°
Longitude
-95.26227°
Altitude
547.845 km
Speed
7.589 km/s
True Right ascension
00h 44m 44s
True Declination
0° 00' 00"
Sunlit
Object was in full shadow at epoch
Visualization orbit readout
Latitude
Unknown
Longitude
Unknown
Altitude
Unknown
Speed
Unknown
Apparent Right ascension
Unknown
Apparent Declination
Unknown
Sunlit
N/A
Visualization observer readout
Local Sidereal Time
07:43:59
Azimuth
Unknown
Elevation
Unknown
Doppler factor
Unknown
Orbital elements
Apogee altitude
548.866 km
Perigee altitude
546.122 km
Semi-major axis
6,925.631 km
Eccentricity
0.0002
Inclination
53.0554°
RAAN
11.1873°
Arg. of periapsis
79.2863°
True anomaly
280.8126°
Mean anomaly
280.8349°
Eccentric anomaly
280.82375°
Mean motion
3.76577 °/min
Orbital period
95.6 mins
BSTAR
0.000077424
Loading maneuver chart data...
Computing Atmospheric mass density...
Loading historical data...
Loading historical data...
Loading historical data...
Loading historical data...
Loading historical data...
Loading historical data...
Loading historical data...

Documentation

Showing up to 5 results
|